Location: Cheyres
(46.8153°N, 6.7877°E)
Time: 03:42:35
(UTC+00:00)

Cosmos 1833 - Pass Details

Date: 11 May 2021
Orbit: 833 x 865 km, 70.9° (Epoch: 18 June)

Event Time Altitude Azimuth Distance (km) Brightness Sun altitude
Rises 22:59:48 0° 334° (NNW) 3,442 8.6 -24.7°
Reaches altitude 10° 23:02:18 10° 338° (NNW) 2,505 7.6 -24.8°
Maximum altitude 23:08:02 65° 60° (ENE) 948 4.4 -24.9°
Enters shadow 23:09:29 48° 118° (ESE) 1,118 4.5 -24.9°
